timestamp,surface_pressure_avg,surface_temp_avg,battery_voltage,lat,long
2019-08-02 00:00:00+00:00,386.4545,17.79,12.97,47.84626,-54.09684
2019-08-02 00:10:00+00:00,388.528,17.77,12.89,47.84626,-54.09684
2019-08-02 00:20:00+00:00,388.8463,17.77,12.97,47.84626,-54.09684
2019-08-02 00:30:00+00:00,388.2012,17.78,12.97,47.84626,-54.09684
2019-08-02 00:40:00+00:00,387.7162,17.78,12.97,47.84626,-54.09684
2019-08-02 00:50:00+00:00,385.4412,17.78,12.97,47.84626,-54.09684
2019-08-02 01:00:00+00:00,381.5347,17.79,12.97,47.84626,-54.09684
2019-08-02 01:10:00+00:00,376.1863,17.79,12.89,47.84626,-54.09684
2019-08-02 01:20:00+00:00,368.6429,17.79,12.97,47.84626,-54.09684
2019-08-02 01:30:00+00:00,362.8413,17.79,12.97,47.84626,-54.09684
2019-08-02 01:40:00+00:00,358.7696,17.77,12.97,47.84626,-54.09684
2019-08-02 01:50:00+00:00,356.2896,17.78,12.97,47.84626,-54.09684
2019-08-02 02:00:00+00:00,351.6296,17.85,12.89,47.84626,-54.09684
2019-08-02 02:10:00+00:00,344.6813,18.04,12.81,47.84626,-54.09684
2019-08-02 02:20:00+00:00,338.003,18.14,12.97,47.84626,-54.09684
2019-08-02 02:30:00+00:00,328.5314,18.21,12.97,47.84626,-54.09684
2019-08-02 02:40:00+00:00,317.718,18.3,12.97,47.84626,-54.09684
2019-08-02 02:50:00+00:00,307.0114,18.33,12.97,47.84626,-54.09684
2019-08-02 03:00:00+00:00,296.6663,18.36,12.89,47.84626,-54.09684
2019-08-02 03:10:00+00:00,286.4864,18.38,12.81,47.84626,-54.09684
2019-08-02 03:20:00+00:00,274.3581,18.36,12.89,47.84626,-54.09684
2019-08-02 03:30:00+00:00,264.1864,18.35,12.97,47.84626,-54.09684
2019-08-02 03:40:00+00:00,253.953,18.38,12.97,47.84626,-54.09684
2019-08-02 03:50:00+00:00,245.7914,18.4,12.97,47.84626,-54.09684
2019-08-02 04:00:00+00:00,236.3964,18.41,12.89,47.84626,-54.09684
2019-08-02 04:10:00+00:00,226.4048,18.48,12.81,47.84626,-54.09684
2019-08-02 04:20:00+00:00,216.5814,18.5,12.89,47.84626,-54.09684
2019-08-02 04:30:00+00:00,207.9597,18.47,12.89,47.84626,-54.09684
2019-08-02 04:40:00+00:00,200.5398,18.4,12.97,47.84626,-54.09684
2019-08-02 04:50:00+00:00,194.0414,18.4,12.97,47.84626,-54.09684
2019-08-02 05:00:00+00:00,188.9831,18.39,12.89,47.84626,-54.09684
2019-08-02 05:10:00+00:00,183.3765,18.33,12.81,47.84626,-54.09684
2019-08-02 05:20:00+00:00,178.1465,18.31,12.89,47.84626,-54.09684
2019-08-02 05:30:00+00:00,172.7448,18.3,12.89,47.84626,-54.09684
2019-08-02 05:40:00+00:00,169.5631,18.3,12.97,47.84626,-54.09684
2019-08-02 05:50:00+00:00,169.3915,18.3,12.97,47.84626,-54.09684
2019-08-02 06:00:00+00:00,166.5232,18.3,12.89,47.84626,-54.09684
2019-08-02 06:10:00+00:00,165.7498,18.3,12.81,47.84626,-54.09684
2019-08-02 06:20:00+00:00,163.8465,18.3,12.89,47.84626,-54.09684
2019-08-02 06:30:00+00:00,160.7632,18.3,12.89,47.84626,-54.09684
2019-08-02 06:40:00+00:00,168.5331,18.3,12.89,47.84626,-54.09684
2019-08-02 06:50:00+00:00,178.4265,18.28,12.89,47.84626,-54.09684
2019-08-02 07:00:00+00:00,179.1581,18.2,12.81,47.84626,-54.09684
2019-08-02 07:10:00+00:00,179.5931,18.2,12.81,47.84626,-54.09684
2019-08-02 07:20:00+00:00,186.5265,18.2,12.89,47.84626,-54.09684
2019-08-02 07:30:00+00:00,190.0615,18.2,12.89,47.84626,-54.09684
2019-08-02 07:40:00+00:00,188.7548,18.2,12.89,47.84626,-54.09684
2019-08-02 07:50:00+00:00,192.7631,18.23,12.89,47.84626,-54.09684
2019-08-02 08:00:00+00:00,199.8148,18.2,12.81,47.84626,-54.09684
2019-08-02 08:10:00+00:00,204.1014,18.2,12.73,47.84626,-54.09684
2019-08-02 08:20:00+00:00,206.9115,18.2,12.81,47.84626,-54.09684
2019-08-02 08:30:00+00:00,212.3864,18.2,12.81,47.84626,-54.09684
2019-08-02 08:40:00+00:00,221.3848,18.2,12.81,47.84626,-54.09684
2019-08-02 08:50:00+00:00,228.2681,18.2,12.89,47.84626,-54.09684
2019-08-02 09:00:00+00:00,232.4164,18.18,12.81,47.84626,-54.09684
2019-08-02 09:10:00+00:00,240.9798,18.13,12.73,47.84626,-54.09684
2019-08-02 09:20:00+00:00,250.1248,18.12,12.81,47.84626,-54.09684
2019-08-02 09:30:00+00:00,255.9731,18.18,12.81,47.84626,-54.09684
2019-08-02 09:40:00+00:00,259.3047,18.2,12.81,47.84626,-54.09684
2019-08-02 09:50:00+00:00,267.183,18.19,12.89,47.84626,-54.09684
2019-08-02 10:00:00+00:00,277.408,18.19,12.81,47.84626,-54.09684
2019-08-02 10:10:00+00:00,285.2513,18.17,12.73,47.84626,-54.09684
2019-08-02 10:20:00+00:00,296.133,18.14,12.81,47.84626,-54.09684
2019-08-02 10:30:00+00:00,303.0314,18.12,12.81,47.84626,-54.09684
2019-08-02 10:40:00+00:00,313.188,18.1,12.89,47.84626,-54.09684
2019-08-02 10:50:00+00:00,322.0446,17.75,12.89,47.84626,-54.09684
2019-08-02 11:00:00+00:00,331.6363,17.6,12.81,47.84626,-54.09684
2019-08-02 11:10:00+00:00,338.9797,17.6,12.81,47.84626,-54.09684
2019-08-02 11:20:00+00:00,344.5062,17.54,12.89,47.84626,-54.09684
2019-08-02 11:30:00+00:00,347.4329,17.55,12.89,47.84626,-54.09684
2019-08-02 11:40:00+00:00,349.2664,17.6,12.97,47.84626,-54.09684
2019-08-02 11:50:00+00:00,352.2546,17.67,12.97,47.84626,-54.09684
2019-08-02 12:00:00+00:00,355.9147,17.7,12.97,47.84626,-54.09684
2019-08-02 12:10:00+00:00,355.7696,17.8,12.97,47.84626,-54.09684
2019-08-02 12:20:00+00:00,355.9813,17.9,13.13,47.84626,-54.09684
2019-08-02 12:30:00+00:00,355.9298,17.9,13.21,47.84626,-54.09684
2019-08-02 12:40:00+00:00,355.5446,17.93,13.29,47.84626,-54.09684
2019-08-02 12:50:00+00:00,354.343,17.91,13.37,47.84626,-54.09684
2019-08-02 13:00:00+00:00,354.3445,17.91,13.53,47.84626,-54.09684
2019-08-02 13:10:00+00:00,353.6829,17.93,13.53,47.84626,-54.09684
2019-08-02 13:20:00+00:00,348.9596,17.95,13.6,47.84626,-54.09684
2019-08-02 13:30:00+00:00,345.2063,17.98,13.53,47.84626,-54.09684
2019-08-02 13:40:00+00:00,343.8379,18.0,13.53,47.84626,-54.09684
2019-08-02 13:50:00+00:00,339.1247,18.0,13.6,47.84626,-54.09684
2019-08-02 14:00:00+00:00,333.3931,18.0,13.53,47.84626,-54.09684
2019-08-02 14:10:00+00:00,331.1896,18.04,13.76,47.84626,-54.09684
2019-08-02 14:20:00+00:00,326.688,18.1,14.56,47.84626,-54.09684
2019-08-02 14:30:00+00:00,317.3363,18.17,14.32,47.84626,-54.09684
2019-08-02 14:40:00+00:00,309.8347,18.2,14.56,47.84626,-54.09684
2019-08-02 14:50:00+00:00,303.5812,18.2,14.64,47.84626,-54.09684
2019-08-02 15:00:00+00:00,293.048,18.2,14.56,47.84626,-54.09684
2019-08-02 15:10:00+00:00,283.3748,18.2,14.56,47.84626,-54.09684
2019-08-02 15:20:00+00:00,272.1631,18.2,14.64,47.84626,-54.09684
2019-08-02 15:30:00+00:00,262.7597,18.2,14.56,47.84626,-54.09684
2019-08-02 15:40:00+00:00,252.1231,18.2,14.56,47.84626,-54.09684
2019-08-02 15:50:00+00:00,241.7131,18.2,14.56,47.84626,-54.09684
2019-08-02 16:00:00+00:00,229.8814,18.2,14.48,47.84626,-54.09684
2019-08-02 16:10:00+00:00,219.7847,18.26,14.4,47.84626,-54.09684
2019-08-02 16:20:00+00:00,213.2697,18.3,14.48,47.84626,-54.09684
2019-08-02 16:30:00+00:00,206.1814,18.31,14.4,47.84626,-54.09684
2019-08-02 16:40:00+00:00,197.4014,18.4,14.4,47.84626,-54.09684
2019-08-02 16:50:00+00:00,192.0081,18.48,14.4,47.84626,-54.09684
2019-08-02 17:00:00+00:00,188.3865,18.5,14.32,47.84626,-54.09684
2019-08-02 17:10:00+00:00,182.7014,18.5,14.24,47.84626,-54.09684
2019-08-02 17:20:00+00:00,179.1932,18.5,14.32,47.84626,-54.09684
2019-08-02 17:30:00+00:00,175.5432,18.5,14.32,47.84626,-54.09684
2019-08-02 17:40:00+00:00,171.1148,18.54,14.24,47.84626,-54.09684
2019-08-02 17:50:00+00:00,167.7965,18.6,14.24,47.84626,-54.09684
2019-08-02 18:00:00+00:00,167.3148,18.7,14.16,47.84626,-54.09684
2019-08-02 18:10:00+00:00,167.0965,18.8,14.0,47.84626,-54.09684
2019-08-02 18:20:00+00:00,166.2715,18.9,14.08,47.84626,-54.09684
2019-08-02 18:30:00+00:00,167.4765,18.99,14.08,47.84626,-54.09684
2019-08-02 18:40:00+00:00,169.5415,19.0,14.0,47.84626,-54.09684
2019-08-02 18:50:00+00:00,170.5565,19.0,14.0,47.84626,-54.09684
2019-08-02 19:00:00+00:00,173.6231,19.02,13.92,47.84626,-54.09684
2019-08-02 19:10:00+00:00,180.6115,19.0,13.84,47.84626,-54.09684
2019-08-02 19:20:00+00:00,184.2181,19.0,13.92,47.84626,-54.09684
2019-08-02 19:30:00+00:00,184.9198,18.98,13.92,47.84626,-54.09684
2019-08-02 19:40:00+00:00,189.9532,18.97,13.92,47.84626,-54.09684
2019-08-02 19:50:00+00:00,199.5648,18.9,13.92,47.84626,-54.09684
2019-08-02 20:00:00+00:00,205.7647,18.89,13.84,47.84626,-54.09684
2019-08-02 20:10:00+00:00,209.0664,18.8,13.76,47.84626,-54.09684
2019-08-02 20:20:00+00:00,216.0014,18.8,13.84,47.84626,-54.09684
2019-08-02 20:30:00+00:00,224.8414,18.7,13.84,47.84626,-54.09684
2019-08-02 20:40:00+00:00,228.2415,18.59,13.84,47.84626,-54.09684
2019-08-02 20:50:00+00:00,231.0414,18.51,13.84,47.84626,-54.09684
2019-08-02 21:00:00+00:00,238.6681,18.5,13.76,47.84626,-54.09684
2019-08-02 21:10:00+00:00,245.273,18.5,13.68,47.84626,-54.09684
2019-08-02 21:20:00+00:00,249.3664,18.51,13.68,47.84626,-54.09684
2019-08-02 21:30:00+00:00,255.7581,18.5,13.68,47.84626,-54.09684
2019-08-02 21:40:00+00:00,264.6414,18.4,13.68,47.84626,-54.09684
2019-08-02 21:50:00+00:00,271.8831,18.4,13.68,47.84626,-54.09684
2019-08-02 22:00:00+00:00,279.2714,18.29,13.6,47.84626,-54.09684
2019-08-02 22:10:00+00:00,289.3464,18.1,13.44,47.84626,-54.09684
2019-08-02 22:20:00+00:00,298.8797,18.1,13.44,47.84626,-54.09684
2019-08-02 22:30:00+00:00,305.288,18.0,13.44,47.84626,-54.09684
2019-08-02 22:40:00+00:00,315.153,17.9,13.44,47.84626,-54.09684
2019-08-02 22:50:00+00:00,326.2796,17.9,13.37,47.84626,-54.09684
2019-08-02 23:00:00+00:00,336.8246,17.91,13.29,47.84626,-54.09684
2019-08-02 23:10:00+00:00,344.1146,17.9,13.13,47.84626,-54.09684
2019-08-02 23:20:00+00:00,355.093,17.9,13.13,47.84626,-54.09684
2019-08-02 23:30:00+00:00,362.8647,17.9,13.13,47.84626,-54.09684
2019-08-02 23:40:00+00:00,366.863,17.8,13.05,47.84626,-54.09684
2019-08-02 23:50:00+00:00,370.5296,17.8,13.05,47.84626,-54.09684
